Location: Belloy
(55.7522°N, 118.2333°W)
Time: 23:32:06
(UTC+00:00)

Envisat - Pass Details

Date: 04 December 2021
Orbit: 764 x 766 km, 98.2° (Epoch: 27 January)

Event Time Altitude Azimuth Distance (km) Brightness Sun altitude
Rises 13:49:07 0° 13° (NNE) 3,250 6.2 -17.5°
Reaches altitude 10° 13:51:28 10° 9° (N) 2,319 5.4 -17.2°
Maximum altitude 13:56:25 54° 294° (WNW) 937 3.1 -16.5°
Drops below altitude 10° 14:01:21 10° 218° (SW) 2,303 5.3 -15.8°
Sets 14:03:41 0° 214° (SW) 3,225 6.1 -15.5°
